FW9255 Weather Reports


time (UTC)temp
C
wind
direction
speed
KPH
gust
KPH
rain 1hr
cm
rain 24hr
cm
rain mn
cm
humidity
%
barometer
mb
20260506111553 12 318 3.2 14.5 0.00 0.00 0.00 75 1013.8
20260506110055 12 15 4.8 20.9 0.00 0.00 0.00 75 1013.7
20260506104559 12 28 4.8 16.1 0.00 0.00 0.00 74 1013.4
20260506103057 12 360 3.2 14.5 0.00 0.00 0.00 75 1013.3
20260506101557 13 0 0.0 0.0 0.00 0.00 0.00 74 1012.9
20260506100054 13 0 0.0 0.0 0.00 0.00 0.00 74 1012.8
20260506094555 13 0 0.0 0.0 0.00 0.00 0.00 74 1012.6
20260506093053 13 0 0.0 0.0 0.00 0.00 0.00 74 1012.5
20260506091600 13 0 0.0 0.0 0.00 0.00 0.00 74 1012.5
20260506090104 13 0 0.0 0.0 0.00 0.00 0.00 74 1012.3
20260506084602 13 0 0.0 0.0 0.00 0.00 0.00 75 1012.0
20260506083058 13 0 0.0 0.0 0.00 0.00 0.00 75 1012.0
20260506081559 13 0 0.0 0.0 0.00 0.00 0.00 75 1011.8
20260506080105 13 0 0.0 0.0 0.00 0.00 0.00 75 1011.9
20260506073057 14 360 1.6 9.7 0.00 0.00 0.00 76 1011.2
20260506071604 14 0 3.2 11.3 0.00 0.00 0.00 77 1011.4
20260506061556 15 348 4.8 14.5 0.00 0.00 0.00 76 1011.4
20260506050104 15 336 4.8 12.9 0.00 0.00 0.00 78 1011.4
20260506044556 16 10 4.8 17.7 0.00 0.00 0.00 78 1011.4
20260506043100 16 341 4.8 17.7 0.00 0.00 0.00 77 1011.6
20260506041601 16 328 4.8 16.1 0.00 0.00 0.00 77 1011.4
20260506040058 16 333 4.8 16.1 0.00 0.00 0.00 77 1011.1
20260506034612 17 323 6.4 16.1 0.00 0.00 0.00 77 1010.9
20260506033059 17 5 4.8 14.5 0.00 0.00 0.00 77 1010.6
20260506031602 17 0 8.0 16.1 0.00 0.00 0.00 76 1010.3
20260506030055 18 28 4.8 14.5 0.00 0.00 0.00 76 1010.3
20260506024613 18 352 8.0 19.3 0.00 0.00 0.00 75 1010.1
20260506023054 19 321 4.8 12.9 0.00 0.00 0.00 75 1009.6
20260506021557 19 327 3.2 14.5 0.00 0.00 0.00 74 1008.8
20260506020057 20 360 3.2 17.7 0.00 0.00 0.00 74 1008.5
20260506014556 20 322 3.2 11.3 0.00 0.00 0.00 73 1008.3
20260506013109 20 347 3.2 12.9 0.00 0.00 0.00 72 1008.0
20260506011607 20 360 1.6 14.5 0.00 0.00 0.00 71 1008.1
20260506010057 21 9 4.8 16.1 0.00 0.00 0.00 70 1007.3
20260506004556 21 319 3.2 22.5 0.00 0.00 0.00 70 1007.5
20260506003058 21 36 4.8 17.7 0.00 0.00 0.00 68 1006.9
20260506001644 22 352 6.4 20.9 0.00 0.00 0.00 67 1006.6
20260506000058 22 309 6.4 24.1 0.00 0.00 0.00 66 1006.5
20260505234557 23 336 6.4 17.7 0.00 0.00 0.00 66 1006.5
20260505233056 24 352 4.8 19.3 0.00 0.00 0.00 64 1006.4
20260505231557 25 344 6.4 22.5 0.00 0.00 0.00 62 1006.1
20260505230106 26 32 4.8 19.3 0.00 0.00 0.00 62 1005.9
20260505224554 27 318 4.8 19.3 0.00 0.00 0.00 59 1005.5
20260505223108 28 326 6.4 16.1 0.00 0.00 0.00 56 1005.6
20260505221554 28 311 9.7 20.9 0.00 0.00 0.00 54 1005.2
20260505220059 30 311 4.8 17.7 0.00 0.00 0.00 51 1005.0
20260505214555 30 297 6.4 17.7 0.00 0.00 0.00 47 1004.9
20260505213059 31 338 6.4 20.9 0.00 0.00 0.00 46 1005.1
20260505211554 31 319 0.0 14.5 0.00 0.00 0.00 48 1004.8
20260505210124 32 291 0.0 9.7 0.00 0.00 0.00 53 1005.1
20260505204601 31 0 1.6 16.1 0.00 0.00 0.00 54 1005.2
20260505203100 31 299 0.0 14.5 0.00 0.00 0.00 57 1005.3
20260505201554 31 275 9.7 22.5 0.00 0.00 0.00 56 1005.4
20260505200054 31 0 0.0 17.7 0.00 0.00 0.00 57 1005.6
20260505194610 30 0 1.6 17.7 0.00 0.00 0.00 57 1005.7
20260505193054 30 0 4.8 20.9 0.00 0.00 0.00 59 1005.8
20260505191554 30 0 3.2 20.9 0.00 0.00 0.00 59 1005.5
20260505190053 29 192 0.0 16.1 0.00 0.00 0.00 65 1005.6
20260505184554 28 0 1.6 14.5 0.00 0.00 0.00 65 1005.6
20260505183101 28 128 3.2 17.7 0.00 0.00 0.00 65 1005.8
20260505181554 28 0 3.2 19.3 0.00 0.00 0.00 65 1005.7
20260505180054 28 0 4.8 19.3 0.00 0.00 0.00 64 1005.7
20260505174558 28 0 0.0 16.1 0.00 0.00 0.00 67 1005.7
20260505173056 27 272 1.6 25.7 0.00 0.00 0.00 68 1005.7
20260505171556 27 0 3.2 16.1 0.00 0.00 0.00 68 1005.8
20260505170058 26 203 3.2 14.5 0.00 0.00 0.00 70 1005.8
20260505164604 26 0 8.0 20.9 0.00 0.00 0.00 70 1006.0
20260505163108 26 0 0.0 16.1 0.00 0.00 0.00 73 1005.7
20260505161558 25 184 1.6 24.1 0.00 0.00 0.00 73 1005.6
20260505153114 25 158 4.8 19.3 0.00 0.00 0.00 74 1005.4
20260505151604 24 173 1.6 24.1 0.00 0.00 0.00 76 1005.3
20260505140108 22 0 0.0 11.3 0.00 0.00 0.00 81 1005.3
20260505124554 21 0 0.0 14.5 0.00 0.00 0.00 84 1005.1
20260505123106 21 207 0.0 8.0 0.00 0.00 0.00 84 1004.8
20260505121555 21 200 3.2 16.1 0.00 0.00 0.00 84 1004.5
20260505114558 21 182 4.8 16.1 0.00 0.00 0.00 84 1004.5
20260505113100 21 166 0.0 0.0 0.00 0.00 0.00 84 1004.5